Weather History for Chesapeake, VA

Change the Weather History Date:

Sunday, February 24, 2013

  Actual Average (KORF) Record (KORF)
Temperature  
Mean Temperature 48 °F 44 °F  
Max Temperature 55 °F 53 °F 82 °F (2012)
Min Temperature 41 °F 36 °F 16 °F (1947)
Degree Days  
Heating Degree Days 17 21  
Month to date heating degree days 545  
Since 1 July heating degree days 2487  
Cooling Degree Days 0 0  
Month to date cooling degree days 0  
Year to date cooling degree days 0  
Moisture  
Dew Point 42 °F    
Average Humidity 87    
Maximum Humidity 100    
Minimum Humidity 57    
Precipitation  
Precipitation 0.11 in 0.12 in 1.03 in (1952)
Month to date precipitation 2.67  
Year to date precipitation 6.07  
Snow  
Snow 0.00 in 0.10 in 8.60 in (1989)
Month to date snowfall 1.8  
Since 1 July snowfall 5.4  
Snow Depth -    
Sea Level Pressure  
Sea Level Pressure 29.90 in    
Wind  
Wind Speed 5 mph (WNW)    
Max Wind Speed 16 mph    
Max Gust Speed 26 mph    
Visibility 7 miles    
Events Rain    
T = Trace of Precipitation, MM = Missing Value Source: NWS Daily Summary

Daily Weather History Graph

Daily Weather History Graph

Search for Another Location

Airport:

Trip Planner

Search our weather history database for the weather conditions in past years. The results will help you decide how hot, cold, wet, or windy it might be!

Date:

Astronomy

Feb. 24, 2013 Rise Set
Actual Time 6:42 AM EST 5:55 PM EST
Civil Twilight 6:16 AM EST 6:21 PM EST
Nautical Twilight 5:46 AM EST 6:51 PM EST
Astronomical Twilight 5:16 AM EST 7:21 PM EST
Moon 5:04 PM EST (2/24) 5:37 AM EST (2/24)
Length of Visible Light 12h 05m
Length of Day
11h 12m
Waxing Gibbous, 99% of the Moon is Illuminated
Feb 24
Waxing Gibbous
Feb 25
Full
Mar 4
Last Quarter
Mar 11
New
Mar 19
First Quarter

Hourly Weather History & Observations

Time (EST) Temp. Windchill Dew Point Humidity Pressure Visibility Wind Dir Wind Speed Gust Speed Precip Events Conditions
12:15 AM 42.8 °F 41.1 °F 42.8 °F 100% 29.82 in 3.0 mi West 3.5 mph - N/A   Overcast
12:35 AM 42.8 °F - 42.8 °F 100% 29.81 in 3.0 mi Calm Calm - N/A   Overcast
12:55 AM 42.8 °F 41.1 °F 42.8 °F 100% 29.82 in 2.5 mi WSW 3.5 mph - N/A   Overcast
1:15 AM 42.8 °F 39.3 °F 42.8 °F 100% 29.81 in 3.0 mi WNW 5.8 mph - N/A   Overcast
1:35 AM 42.8 °F 40.1 °F 42.8 °F 100% 29.82 in 2.5 mi West 4.6 mph - N/A   Overcast
1:55 AM 42.8 °F 39.3 °F 42.8 °F 100% 29.83 in 1.5 mi West 5.8 mph - N/A   Overcast
2:15 AM 42.8 °F 41.1 °F 42.8 °F 100% 29.82 in 1.8 mi West 3.5 mph - N/A   Overcast
2:35 AM 42.8 °F 39.3 °F 42.8 °F 100% 29.80 in 1.8 mi WNW 5.8 mph - 0.01 in Rain Rain
2:55 AM 42.8 °F 41.1 °F 42.8 °F 100% 29.80 in 2.0 mi WNW 3.5 mph - N/A Rain Light Rain
3:15 AM 42.8 °F - 42.8 °F 100% 29.80 in 2.0 mi Calm Calm - 0.04 in Rain Heavy Rain
3:35 AM 42.8 °F 40.1 °F 42.8 °F 100% 29.80 in 3.0 mi WNW 4.6 mph - 0.07 in Rain Light Rain
3:55 AM 42.8 °F - 42.8 °F 100% 29.79 in 3.0 mi Calm Calm - 0.01 in Rain Light Rain
4:15 AM 42.8 °F 40.1 °F 42.8 °F 100% 29.80 in 3.0 mi West 4.6 mph - 0.01 in   Overcast
4:35 AM 42.8 °F 38.0 °F 42.8 °F 100% 29.80 in 3.0 mi NW 8.1 mph - 0.01 in   Overcast
4:55 AM 42.8 °F 39.3 °F 42.8 °F 100% 29.82 in 3.0 mi WNW 5.8 mph - N/A Rain Light Rain
5:15 AM 42.8 °F - 42.8 °F 100% 29.80 in 2.5 mi Calm Calm - N/A   Overcast
5:35 AM 42.8 °F - 42.8 °F 100% 29.83 in 4.0 mi Calm Calm - N/A   Overcast
5:55 AM 42.8 °F 38.6 °F 42.8 °F 100% 29.84 in 4.0 mi WNW 6.9 mph - 0.01 in Rain Light Rain
6:15 AM 42.8 °F 38.0 °F 42.8 °F 100% 29.84 in 7.0 mi NW 8.1 mph - 0.01 in Rain Light Rain
6:35 AM 42.8 °F 41.1 °F 42.8 °F 100% 29.82 in 5.0 mi NNW 3.5 mph - 0.01 in   Light Drizzle
7:15 AM 44.6 °F 42.2 °F 42.8 °F 93% 29.82 in 1.5 mi NW 4.6 mph - N/A   Overcast
7:35 AM 44.6 °F 42.2 °F 44.6 °F 100% 29.84 in 1.0 mi NW 4.6 mph - N/A   Overcast
7:55 AM 44.6 °F 39.7 °F 44.6 °F 100% 29.86 in 7.0 mi NW 9.2 mph - N/A   Overcast
8:15 AM 44.6 °F 40.7 °F 44.6 °F 100% 29.87 in 4.0 mi NW 6.9 mph - N/A   Overcast
8:35 AM 44.6 °F 40.7 °F 44.6 °F 100% 29.87 in 7.0 mi NNW 6.9 mph - N/A   Overcast
8:55 AM 44.6 °F 39.7 °F 44.6 °F 100% 29.89 in 7.0 mi NNW 9.2 mph - N/A   Overcast
9:15 AM 44.6 °F 41.4 °F 44.6 °F 100% 29.89 in 7.0 mi NNW 5.8 mph - N/A   Overcast
9:35 AM 44.6 °F 40.7 °F 42.8 °F 93% 29.89 in 10.0 mi NNW 6.9 mph - N/A   Overcast
9:55 AM 44.6 °F 42.2 °F 44.6 °F 100% 29.89 in 10.0 mi NNW 4.6 mph - N/A   Overcast
10:15 AM 46.4 °F 43.5 °F 44.6 °F 93% 29.89 in 10.0 mi WNW 5.8 mph - N/A   Overcast
10:35 AM 46.4 °F 42.4 °F 44.6 °F 93% 29.91 in 10.0 mi NW 8.1 mph - N/A   Overcast
10:55 AM 46.4 °F 42.9 °F 44.6 °F 93% 29.91 in 10.0 mi WNW 6.9 mph - N/A   Overcast
11:15 AM 46.4 °F 42.9 °F 44.6 °F 93% 29.92 in 10.0 mi NW 6.9 mph - N/A   Overcast
11:35 AM 46.4 °F 42.9 °F 44.6 °F 93% 29.92 in 10.0 mi WNW 6.9 mph - N/A   Overcast
11:55 AM 46.4 °F 43.5 °F 44.6 °F 93% 29.91 in 10.0 mi WNW 5.8 mph - N/A   Overcast
12:15 PM 48.2 °F - 44.6 °F 87% 29.91 in 10.0 mi West 3.5 mph - N/A   Overcast
12:35 PM 50.0 °F - 44.6 °F 82% 29.91 in 10.0 mi West 3.5 mph - N/A   Mostly Cloudy
12:55 PM 51.8 °F - 44.6 °F 76% 29.90 in 10.0 mi West 4.6 mph - N/A   Mostly Cloudy
1:15 PM 53.6 °F - 42.8 °F 67% 29.88 in 10.0 mi Calm Calm - N/A   Mostly Cloudy
1:35 PM 53.6 °F - 42.8 °F 67% 29.88 in 10.0 mi WNW 3.5 mph - N/A   Mostly Cloudy
1:55 PM 53.6 °F - 42.8 °F 67% 29.87 in 10.0 mi SW 3.5 mph - N/A   Scattered Clouds
2:15 PM 53.6 °F - 42.8 °F 67% 29.88 in 10.0 mi Calm Calm - N/A   Mostly Cloudy
2:35 PM 53.6 °F - 42.8 °F 67% 29.88 in 10.0 mi West 4.6 mph - N/A   Overcast
2:55 PM 55.4 °F - 44.6 °F 67% 29.87 in 10.0 mi WSW 6.9 mph - N/A   Overcast
3:15 PM 53.6 °F - 44.6 °F 72% 29.88 in 10.0 mi SW 5.8 mph - N/A   Overcast
3:35 PM 53.6 °F - 44.6 °F 72% 29.88 in 10.0 mi SW 6.9 mph - N/A   Overcast
3:55 PM 53.6 °F - 44.6 °F 72% 29.88 in 10.0 mi SW 6.9 mph - N/A   Mostly Cloudy
4:15 PM 55.4 °F - 44.6 °F 67% 29.88 in 10.0 mi WSW 11.5 mph - N/A   Overcast
4:35 PM 55.4 °F - 42.8 °F 63% 29.89 in 10.0 mi SW 8.1 mph - N/A   Mostly Cloudy
4:55 PM 53.6 °F - 44.6 °F 72% 29.90 in 10.0 mi SW 6.9 mph - N/A   Scattered Clouds
5:15 PM 53.6 °F - 44.6 °F 72% 29.90 in 10.0 mi SW 3.5 mph - N/A   Clear
5:35 PM 51.8 °F - 44.6 °F 76% 29.91 in 10.0 mi WSW 3.5 mph - N/A   Clear
5:55 PM 50.0 °F - 42.8 °F 76% 29.92 in 10.0 mi WSW 3.5 mph - N/A   Clear
6:15 PM 48.2 °F - 42.8 °F 82% 29.93 in 10.0 mi SW 3.5 mph - N/A   Clear
6:35 PM 46.4 °F - 42.8 °F 87% 29.94 in 10.0 mi Calm Calm - N/A   Clear
6:55 PM 46.4 °F - 44.6 °F 93% 29.94 in 10.0 mi Calm Calm - N/A   Clear
7:15 PM 46.4 °F - 42.8 °F 87% 29.95 in 10.0 mi Calm Calm - N/A   Clear
7:35 PM 42.8 °F - 42.8 °F 100% 29.96 in 5.0 mi Calm Calm - N/A   Clear
7:55 PM 42.8 °F - 42.8 °F 100% 29.96 in 7.0 mi Calm Calm - N/A   Clear
8:15 PM 41.0 °F - 41.0 °F 100% 29.97 in 5.0 mi Calm Calm - N/A   Clear
8:35 PM 42.8 °F - 42.8 °F 100% 29.98 in 10.0 mi Calm Calm - N/A   Clear
8:55 PM 41.0 °F - 39.2 °F 93% 29.98 in 7.0 mi Calm Calm - N/A   Clear
9:15 PM 41.0 °F - 39.2 °F 93% 29.99 in 10.0 mi Calm Calm - N/A   Clear
9:35 PM 41.0 °F 37.1 °F 41.0 °F 100% 30.02 in 10.0 mi North 5.8 mph - N/A   Clear
9:55 PM 44.6 °F 37.4 °F 33.8 °F 66% 30.04 in 10.0 mi North 16.1 mph 26.5 mph N/A   Mostly Cloudy
10:15 PM 44.6 °F 37.8 °F 32.0 °F 61% 30.05 in 10.0 mi NNE 15.0 mph 23.0 mph N/A   Scattered Clouds
10:35 PM 44.6 °F 37.8 °F 30.2 °F 57% 30.06 in 10.0 mi North 15.0 mph 23.0 mph N/A   Mostly Cloudy
10:55 PM 42.8 °F 35.8 °F 30.2 °F 61% 30.06 in 10.0 mi North 13.8 mph 19.6 mph N/A   Overcast
11:15 PM 42.8 °F 37.5 °F 30.2 °F 61% 30.07 in 10.0 mi North 9.2 mph 21.9 mph N/A   Overcast
11:35 PM 42.8 °F 37.5 °F 28.4 °F 57% 30.07 in 10.0 mi North 9.2 mph 20.7 mph N/A   Overcast
11:55 PM 41.0 °F 33.9 °F 26.6 °F 57% 30.07 in 10.0 mi North 12.7 mph 21.9 mph N/A   Scattered Clouds